Weather in Kusha

Russia / Arkhangel'skaya Oblast'     63°43′18″N   37°03′17″E
temp.,
°C
wind,
m/s
gust,
m/s
humid.,
%
clouds,
%
prec.,
mm/h
press.,
hPa
HPBL,
m
23 june, wed
wed2300:00+19ssw413832 0.0 1014221
03:00+19sw37821 0.0 1015111
06:00+23ssw38650 0.0 1015228
09:00+28sw354820 0.3 1015605
12:00+31sw463793 0.1 10142166
15:00+21nw3676100 1.4 1015493
18:00+20ese1289100 5.4 1016189
21:00+17nne349412 5.6 101587
24 june, thu
thu2400:00+14nw119971 0.3 101647
03:00+14nne119817 0.5 101423
06:00+14nne129543 0.0 101380
09:00+26wsw37649 0.6 1011958
12:00+28wnw484993 0.1 10111790
15:00+15n3692100 1.1 1014196
18:00+15nnw477788 0.1 1015323
21:00+11nw488711 0.1 1016233
25 june, fri
fri2500:00+9nw249735 0.0 1017150
03:00+8nnw239841 0.0 101890
06:00+11nne238563 0.0 1018288
09:00+12nne227890 0.0 1019428
12:00+16nne3366100 0.0 1019615
15:00+16nne3266100 0.0 1019540
18:00+15nne236993 0.0 1018338
21:00+12nne23857 0.0 1017115
26 june, sat
sat2600:00+9e11952 0.0 101711
03:00+9nne019380 0.0 101710
06:00+13ne1177100 0.0 1016112
09:00+18ene2261100 0.0 1015375
12:00+21ne225496 0.0 1015562
15:00+21n4357100 0.0 1014347
18:00+13nnw1495100 2.0 1014129
21:00+12nne2897100 4.1 1014187
27 june, sun
sun2700:00+13ne2899100 1.1 1013204
03:00+12n3599100 1.7 1014124
06:00+12n249999 0.1 1014104
09:00+14n349673 0.1 1015165
12:00+19nne347349 0.0 1015579
15:00+21nne356335 0.0 1015619
18:00+18n356783 0.0 1016241
21:00+14nnw2477100 0.0 1016132